﻿LOCATION NAME,DATE_TIME,AVG_STAGE,STDDEV_STAGE,MIN_STAGE,MAX_STAGE,N_STAGE,AVG_SURFACE_PAR,STDDEV_SURFACE_PAR,MIN_SURFACE_PAR,MAX_SURFACE_PAR,N_SURFACE_PAR,AVG_UW_PAR,STDDEV_UW_PAR,MIN_UW_PAR,MAX_UW_PAR,N_UW_PAR,DAILY_ABLATION
West Lake Bonney,10/28/96,,,,,0,,,,,0,1.386,0.776,0.578,3.032,15,
West Lake Bonney,10/29/96,,,,,0,,,,,0,4.104,3.366,0.322,9.777,96,
West Lake Bonney,10/30/96,,,,,0,,,,,0,2.715,2.169,0.253,6.535,96,
West Lake Bonney,10/31/96,,,,,0,,,,,0,2.303,1.634,0.383,5.614,96,
West Lake Bonney,11/1/96,,,,,0,,,,,0,2.64,1.99,0.224,6.215,96,
West Lake Bonney,11/2/96,,,,,0,,,,,0,2.945,2.238,0.314,6.514,96,
West Lake Bonney,11/3/96,,,,,0,,,,,0,3.115,2.359,0.375,6.809,96,
West Lake Bonney,11/4/96,,,,,0,,,,,0,1.718,0.962,0.394,3.359,96,
West Lake Bonney,11/5/96,,,,,0,,,,,0,3.007,2.355,0.435,7.66,96,
West Lake Bonney,11/6/96,,,,,0,,,,,0,3.342,2.462,0.263,7.494,96,
West Lake Bonney,11/7/96,,,,,0,,,,,0,3.581,2.594,0.518,7.405,96,
West Lake Bonney,11/8/96,,,,,0,,,,,0,3.629,2.622,0.502,7.482,96,
West Lake Bonney,11/9/96,,,,,0,,,,,0,3.723,2.685,0.48,7.723,96,
West Lake Bonney,11/10/96,,,,,0,,,,,0,3.882,2.752,0.479,7.896,96,
West Lake Bonney,11/11/96,,,,,0,,,,,0,3.113,2.267,0.556,7.739,96,
West Lake Bonney,11/12/96,,,,,0,,,,,0,3.903,2.685,0.476,9.908,96,
West Lake Bonney,11/13/96,,,,,0,,,,,0,4.909,2.94,1.234,9.112,96,
West Lake Bonney,11/14/96,,,,,0,,,,,0,4.909,2.975,1.054,9.217,96,
West Lake Bonney,11/15/96,,,,,0,,,,,0,5.001,3.128,0.582,9.515,96,
West Lake Bonney,11/16/96,,,,,0,,,,,0,4.562,3.088,0.048,10.579,96,
West Lake Bonney,11/17/96,,,,,0,,,,,0,3.92,2.517,0.176,8.09,96,
West Lake Bonney,11/18/96,,,,,0,,,,,0,5.153,3.115,0.741,9.578,96,
West Lake Bonney,11/19/96,,,,,0,,,,,0,5.112,3.094,0.987,9.451,96,
West Lake Bonney,11/20/96,,,,,0,,,,,0,5.145,3.027,1.146,9.411,96,
West Lake Bonney,11/21/96,,,,,0,,,,,0,5.141,2.988,1.15,9.4,96,
West Lake Bonney,11/22/96,,,,,0,,,,,0,5.107,2.999,1.133,9.292,96,
West Lake Bonney,11/23/96,,,,,0,,,,,0,5.008,2.885,1.148,9.039,96,
West Lake Bonney,11/24/96,,,,,0,,,,,0,4.477,2.782,1.052,9.704,96,
West Lake Bonney,11/25/96,,,,,0,,,,,0,3.742,2.104,1.056,7.635,96,
West Lake Bonney,11/26/96,,,,,0,,,,,0,3.261,1.846,0.762,6.387,96,
West Lake Bonney,11/27/96,,,,,0,,,,,0,4.123,2.11,1.243,8.154,96,
West Lake Bonney,11/28/96,,,,,0,,,,,0,4.697,2.22,1.591,8.925,96,
West Lake Bonney,11/29/96,,,,,0,,,,,0,4.511,2.639,1.052,8.856,96,
West Lake Bonney,11/30/96,,,,,0,,,,,0,4.063,2.009,1.384,8.497,96,
West Lake Bonney,12/1/96,,,,,0,,,,,0,4.613,2.462,1.242,9.249,96,
West Lake Bonney,12/2/96,,,,,0,,,,,0,3.792,1.909,1.296,7.037,96,
West Lake Bonney,12/3/96,,,,,0,,,,,0,4.515,2.595,1.131,9.786,96,
West Lake Bonney,12/4/96,,,,,0,,,,,0,3.676,1.719,1.137,6.544,96,
West Lake Bonney,12/5/96,,,,,0,,,,,0,4.657,2.427,1.185,8.018,96,
West Lake Bonney,12/6/96,,,,,0,,,,,0,3.149,1.525,1.149,5.95,96,
West Lake Bonney,12/7/96,,,,,0,,,,,0,4.424,2.236,1.276,8.613,96,
West Lake Bonney,12/8/96,,,,,0,,,,,0,4.317,2.16,1.627,7.975,96,
West Lake Bonney,12/9/96,,,,,0,,,,,0,4.846,2.485,1.282,8.938,96,
West Lake Bonney,12/10/96,,,,,0,,,,,0,4.376,2.039,1.346,7.751,96,
West Lake Bonney,12/11/96,,,,,0,,,,,0,4.576,2.321,1.202,7.817,96,
West Lake Bonney,12/12/96,,,,,0,,,,,0,2.829,0.915,1.561,4.536,96,
West Lake Bonney,12/13/96,,,,,0,,,,,0,3.193,1.463,1.068,5.777,96,
West Lake Bonney,12/14/96,,,,,0,,,,,0,4.377,2.561,1.198,8.468,96,
West Lake Bonney,12/15/96,,,,,0,,,,,0,3.377,1.724,1.526,8.833,96,
West Lake Bonney,12/16/96,,,,,0,,,,,0,4.672,2.507,1.23,8.658,96,
West Lake Bonney,12/17/96,,,,,0,,,,,0,3.644,2.078,1.21,10.525,96,
West Lake Bonney,12/18/96,,,,,0,,,,,0,3.119,1.263,1.427,7.413,96,
West Lake Bonney,12/19/96,,,,,0,,,,,0,3.93,2.321,1.096,9.847,96,
West Lake Bonney,12/20/96,,,,,0,,,,,0,3.507,1.728,1.169,7.93,96,
West Lake Bonney,12/21/96,,,,,0,,,,,0,3.725,1.52,1.531,7.929,96,
West Lake Bonney,12/22/96,,,,,0,,,,,0,3.251,1.539,1.378,8.765,96,
West Lake Bonney,12/23/96,,,,,0,,,,,0,5.172,2.629,1.501,10.091,96,
West Lake Bonney,12/24/96,,,,,0,,,,,0,4.968,2.649,1.152,8.656,96,
West Lake Bonney,12/25/96,,,,,0,,,,,0,4.655,2.525,1.142,8.395,96,
West Lake Bonney,12/26/96,,,,,0,,,,,0,3.448,1.991,1.142,8.451,96,
West Lake Bonney,12/27/96,,,,,0,,,,,0,2.94,1.355,1.142,6.351,96,
West Lake Bonney,12/28/96,,,,,0,,,,,0,2.941,1.261,1.348,6.617,96,
West Lake Bonney,12/29/96,,,,,0,,,,,0,3.544,2.113,1.046,8.553,96,
West Lake Bonney,12/30/96,,,,,0,,,,,0,3.088,1.522,1.141,6.339,96,
West Lake Bonney,12/31/96,,,,,0,,,,,0,3.331,1.786,1.075,7.618,96,
West Lake Bonney,1/1/97,,,,,0,,,,,0,3.519,2.18,1.131,6.935,96,
West Lake Bonney,1/2/97,,,,,0,,,,,0,2.4,1.189,1.03,5.252,96,
West Lake Bonney,1/3/97,,,,,0,,,,,0,1.579,0.609,0.792,2.737,96,
West Lake Bonney,1/4/97,,,,,0,,,,,0,1.973,0.841,0.767,3.136,96,
West Lake Bonney,1/5/97,,,,,0,,,,,0,1.674,0.659,0.764,2.639,96,
West Lake Bonney,1/6/97,,,,,0,,,,,0,1.415,0.524,0.69,2.242,96,
West Lake Bonney,1/7/97,,,,,0,,,,,0,1.179,0.436,0.668,1.903,96,
West Lake Bonney,1/8/97,,,,,0,,,,,0,0.904,0.163,0.671,1.241,96,
West Lake Bonney,1/9/97,,,,,0,,,,,0,1.007,0.243,0.665,1.485,96,
West Lake Bonney,1/10/97,,,,,0,,,,,0,1.31,0.369,0.709,1.893,96,
West Lake Bonney,1/11/97,,,,,0,,,,,0,1.707,0.828,0.759,3.082,96,
West Lake Bonney,1/12/97,,,,,0,,,,,0,1.159,0.369,0.817,2.089,96,
West Lake Bonney,1/13/97,,,,,0,,,,,0,1.739,0.89,0.848,3.591,96,
West Lake Bonney,1/14/97,,,,,0,,,,,0,2.046,0.928,0.797,4.204,96,
West Lake Bonney,1/15/97,,,,,0,,,,,0,2.031,0.92,0.854,4.174,96,
West Lake Bonney,1/16/97,,,,,0,,,,,0,2.092,1.017,0.838,3.804,96,
West Lake Bonney,1/17/97,,,,,0,,,,,0,1.985,0.874,0.812,3.244,96,
West Lake Bonney,1/18/97,,,,,0,,,,,0,1.895,0.852,0.768,3.126,96,
West Lake Bonney,1/19/97,,,,,0,,,,,0,1.55,0.567,0.787,2.813,96,
West Lake Bonney,1/20/97,,,,,0,,,,,0,1.642,0.503,0.945,2.572,96,
West Lake Bonney,1/21/97,,,,,0,,,,,0,1.83,0.969,0.853,4.3,96,
West Lake Bonney,1/22/97,,,,,0,,,,,0,1.522,0.597,0.85,2.954,96,
West Lake Bonney,1/23/97,,,,,0,,,,,0,1.385,0.617,0.811,3.8,96,
West Lake Bonney,1/24/97,,,,,0,,,,,0,1.571,0.666,0.774,2.684,96,
West Lake Bonney,1/25/97,,,,,0,,,,,0,1.51,0.61,0.815,2.557,96,
West Lake Bonney,1/26/97,,,,,0,,,,,0,1.717,0.908,0.856,3.778,96,
West Lake Bonney,1/27/97,,,,,0,,,,,0,1.648,0.641,0.852,2.576,96,
West Lake Bonney,1/28/97,,,,,0,,,,,0,1.368,0.55,0.852,2.525,49,
West Lake Bonney,11/11/97,,,,,0,,,,,0,0.335,0.114,0.133,0.412,5,
West Lake Bonney,11/12/97,,,,,0,,,,,0,0.623,0.472,0,1.461,96,
West Lake Bonney,11/13/97,,,,,0,,,,,0,0.681,0.511,0,1.564,96,
West Lake Bonney,11/14/97,,,,,0,,,,,0,0.659,0.507,0,1.558,96,
West Lake Bonney,11/15/97,,,,,0,,,,,0,0.346,0.35,0,1.31,96,
West Lake Bonney,11/16/97,,,,,0,,,,,0,0.417,0.299,0,1.296,96,
West Lake Bonney,11/17/97,,,,,0,,,,,0,0.601,0.565,0,2.087,96,
West Lake Bonney,11/18/97,,,,,0,,,,,0,0.41,0.511,0,1.949,96,
West Lake Bonney,11/19/97,,,,,0,,,,,0,0.596,0.717,0,2.595,96,
West Lake Bonney,11/20/97,,,,,0,,,,,0,0.457,0.565,0,1.973,96,
West Lake Bonney,11/21/97,,,,,0,,,,,0,0.915,0.788,0,2.135,96,
West Lake Bonney,11/22/97,,,,,0,,,,,0,0.84,0.707,0,2.094,96,
West Lake Bonney,11/23/97,,,,,0,,,,,0,0.92,0.748,0,2.138,96,
West Lake Bonney,11/24/97,,,,,0,,,,,0,0.503,0.523,0,2.034,96,
West Lake Bonney,11/25/97,,,,,0,,,,,0,0.743,0.79,0,2.263,96,
West Lake Bonney,11/26/97,,,,,0,,,,,0,0.824,0.77,0,2.096,96,
West Lake Bonney,11/27/97,,,,,0,,,,,0,0.852,0.707,0,2.024,96,
West Lake Bonney,11/28/97,,,,,0,,,,,0,0.67,0.708,0,1.942,96,
West Lake Bonney,11/29/97,,,,,0,,,,,0,0.191,0.181,0,0.743,96,
West Lake Bonney,11/30/97,,,,,0,,,,,0,0.513,0.431,0,1.507,96,
West Lake Bonney,12/1/97,,,,,0,,,,,0,0.843,0.832,0,3.087,96,
West Lake Bonney,12/2/97,,,,,0,,,,,0,0.905,0.878,0,2.956,96,
West Lake Bonney,12/3/97,,,,,0,,,,,0,0.868,0.771,0,2.865,96,
West Lake Bonney,12/4/97,,,,,0,,,,,0,0.738,0.705,0,2.413,96,
West Lake Bonney,12/5/97,,,,,0,,,,,0,0.965,0.782,0,2.291,96,
West Lake Bonney,12/6/97,,,,,0,,,,,0,0.873,0.851,0,2.19,96,
West Lake Bonney,12/7/97,,,,,0,,,,,0,0.24,0.258,0,0.798,96,
West Lake Bonney,12/8/97,,,,,0,,,,,0,0.26,0.245,0,0.867,96,
West Lake Bonney,12/9/97,,,,,0,,,,,0,0.663,0.493,0,1.82,96,
West Lake Bonney,12/10/97,,,,,0,,,,,0,0.613,0.581,0,1.87,96,
West Lake Bonney,12/11/97,,,,,0,,,,,0,0.476,0.389,0,1.117,96,
West Lake Bonney,12/12/97,,,,,0,,,,,0,0.683,0.636,0,2.054,96,
West Lake Bonney,12/13/97,,,,,0,,,,,0,0.53,0.514,0,1.648,96,
West Lake Bonney,12/14/97,,,,,0,,,,,0,0.659,0.57,0,2.006,96,
West Lake Bonney,12/15/97,,,,,0,,,,,0,0.572,0.537,0,1.841,96,
West Lake Bonney,12/16/97,,,,,0,,,,,0,0.878,0.785,0,2.317,96,
West Lake Bonney,12/17/97,,,,,0,,,,,0,0.006,0.023,0,0.16,96,
West Lake Bonney,12/18/97,,,,,0,,,,,0,0.172,0.242,0,0.737,96,
West Lake Bonney,12/19/97,,,,,0,,,,,0,0.134,0.153,0,0.506,96,
West Lake Bonney,12/20/97,,,,,0,,,,,0,0.465,0.46,0,1.28,96,
West Lake Bonney,12/21/97,,,,,0,,,,,0,0.581,0.616,0,2.028,96,
West Lake Bonney,12/22/97,,,,,0,,,,,0,0.7,0.557,0,1.535,96,
West Lake Bonney,12/23/97,,,,,0,,,,,0,0.673,0.623,0,1.701,96,
West Lake Bonney,12/24/97,,,,,0,,,,,0,0.66,0.573,0,1.718,96,
West Lake Bonney,12/25/97,,,,,0,,,,,0,0.492,0.572,0,2.257,96,
West Lake Bonney,12/26/97,,,,,0,,,,,0,0.707,0.571,0,1.637,96,
West Lake Bonney,12/27/97,,,,,0,,,,,0,0.63,0.568,0,1.702,96,
West Lake Bonney,12/28/97,,,,,0,,,,,0,0.511,0.502,0,1.839,96,
West Lake Bonney,12/29/97,,,,,0,,,,,0,0.546,0.467,0,1.549,96,
West Lake Bonney,12/30/97,,,,,0,,,,,0,0.145,0.239,0,0.773,96,
West Lake Bonney,12/31/97,,,,,0,,,,,0,0.004,0.011,0,0.05,96,
West Lake Bonney,1/1/98,,,,,0,,,,,0,0.242,0.375,0,1.552,96,
West Lake Bonney,1/2/98,,,,,0,,,,,0,0.35,0.417,0,1.806,96,
West Lake Bonney,1/3/98,,,,,0,,,,,0,0.103,0.159,0,0.614,96,
West Lake Bonney,1/4/98,,,,,0,,,,,0,0.466,0.424,0,1.7,96,
West Lake Bonney,1/5/98,,,,,0,,,,,0,0.567,0.425,0,1.961,96,
West Lake Bonney,1/6/98,,,,,0,,,,,0,0.546,0.579,0,2.03,96,
West Lake Bonney,1/7/98,,,,,0,,,,,0,0.422,0.472,0,1.553,96,
West Lake Bonney,1/8/98,,,,,0,,,,,0,0.454,0.421,0,1.472,96,
West Lake Bonney,1/9/98,,,,,0,,,,,0,0.49,0.398,0,1.071,96,
West Lake Bonney,1/10/98,,,,,0,,,,,0,0.626,0.551,0,1.583,96,
West Lake Bonney,1/11/98,,,,,0,,,,,0,0.687,0.589,0,1.763,96,
West Lake Bonney,1/12/98,,,,,0,,,,,0,0.563,0.521,0,1.629,96,
West Lake Bonney,1/13/98,,,,,0,,,,,0,0.544,0.533,0,1.66,96,
West Lake Bonney,1/14/98,,,,,0,,,,,0,0.728,0.735,0,2.167,96,
West Lake Bonney,1/15/98,,,,,0,,,,,0,0.514,0.604,0,1.61,51,
West Lake Bonney,11/25/98,,,,,0,,,,,0,1.589,0.693,0.132,2.56,22,
West Lake Bonney,11/26/98,,,,,0,,,,,0,1.478,0.994,0.124,2.894,71,
West Lake Bonney,11/27/98,,,,,0,,,,,0,1.554,0.96,0.124,2.928,72,
West Lake Bonney,11/28/98,,,,,0,,,,,0,1.562,0.957,0.132,2.782,72,
West Lake Bonney,11/29/98,,,,,0,,,,,0,1.425,0.989,0.124,3.272,72,
West Lake Bonney,11/30/98,,,,,0,,,,,0,1.562,0.932,0.124,2.849,72,
West Lake Bonney,12/1/98,,,,,0,,,,,0,1.412,0.966,0.114,3.029,72,
West Lake Bonney,12/2/98,,,,,0,,,,,0,1.379,0.975,0.124,3.46,72,
West Lake Bonney,12/3/98,,,,,0,,,,,0,1.44,0.884,0.244,3.055,72,
West Lake Bonney,12/4/98,,,,,0,,,,,0,1.636,1.044,0.012,3.036,72,
West Lake Bonney,12/5/98,,,,,0,,,,,0,1.655,1.02,0.08,3.035,72,
West Lake Bonney,12/6/98,,,,,0,,,,,0,1.737,0.991,0.26,3.044,72,
West Lake Bonney,12/7/98,,,,,0,,,,,0,1.553,1.074,0.209,3.189,72,
West Lake Bonney,12/8/98,,,,,0,,,,,0,0.927,0.611,0.114,1.979,72,
West Lake Bonney,12/9/98,,,,,0,,,,,0,1.659,1.055,0.114,3.12,72,
West Lake Bonney,12/10/98,,,,,0,,,,,0,1.78,0.995,0.278,3.137,72,
West Lake Bonney,12/11/98,,,,,0,,,,,0,1.409,0.932,0.278,3.891,72,
West Lake Bonney,12/12/98,,,,,0,,,,,0,1.83,1.044,0.467,3.531,72,
West Lake Bonney,12/13/98,,,,,0,,,,,0,1.667,0.826,0.509,3.684,72,
West Lake Bonney,12/14/98,,,,,0,,,,,0,1.661,0.778,0.483,3.083,72,
West Lake Bonney,12/15/98,,,,,0,,,,,0,1.832,1.027,0.278,3.623,72,
West Lake Bonney,12/16/98,,,,,0,,,,,0,1.551,0.787,0.337,2.894,72,
West Lake Bonney,12/17/98,,,,,0,,,,,0,2.24,1.152,0.655,4.051,72,
West Lake Bonney,12/18/98,,,,,0,,,,,0,2.298,1.264,0.32,3.98,72,
West Lake Bonney,12/19/98,,,,,0,,,,,0,2.431,1.314,0.44,4.212,72,
West Lake Bonney,12/20/98,,,,,0,,,,,0,2.545,1.375,0.466,4.485,72,
West Lake Bonney,12/21/98,,,,,0,,,,,0,2.201,1.351,0.466,4.459,72,
West Lake Bonney,12/22/98,,,,,0,,,,,0,2.355,1.403,0.38,4.295,72,
West Lake Bonney,12/23/98,,,,,0,,,,,0,2.371,1.258,0.466,4.063,72,
West Lake Bonney,12/24/98,,,,,0,,,,,0,2.411,1.277,0.466,4.149,72,
West Lake Bonney,12/25/98,,,,,0,,,,,0,2.067,1.111,0.466,3.805,72,
West Lake Bonney,12/26/98,,,,,0,,,,,0,2.086,1.091,0.602,3.745,72,
West Lake Bonney,12/27/98,,,,,0,,,,,0,2.09,1.159,0.559,3.829,72,
West Lake Bonney,12/28/98,,,,,0,,,,,0,1.657,0.974,0.535,3.615,72,
West Lake Bonney,12/29/98,,,,,0,,,,,0,1.737,0.803,0.628,4.136,72,
West Lake Bonney,12/30/98,,,,,0,,,,,0,2.106,1.177,0.482,4.752,72,
West Lake Bonney,12/31/98,,,,,0,,,,,0,1.225,0.653,0,3.152,72,
West Lake Bonney,1/1/99,,,,,0,,,,,0,1.699,0.738,0.49,3.459,72,
West Lake Bonney,1/2/99,,,,,0,,,,,0,2.017,1.014,0.678,4.143,72,
West Lake Bonney,1/3/99,,,,,0,,,,,0,1.624,0.921,0.516,3.988,72,
West Lake Bonney,1/4/99,,,,,0,,,,,0,1.851,0.876,0.473,3.619,72,
West Lake Bonney,1/5/99,,,,,0,,,,,0,1.845,0.916,0.524,3.721,72,
West Lake Bonney,1/6/99,,,,,0,,,,,0,1.689,0.722,0.627,2.755,72,
West Lake Bonney,1/7/99,,,,,0,,,,,0,1.188,0.595,0.379,2.353,72,
West Lake Bonney,1/8/99,,,,,0,,,,,0,1.741,1.042,0.328,3.592,72,
West Lake Bonney,1/9/99,,,,,0,,,,,0,1.938,1,0.455,3.292,72,
West Lake Bonney,1/10/99,,,,,0,,,,,0,1.043,0.652,0.293,2.462,72,
West Lake Bonney,1/11/99,,,,,0,,,,,0,0.921,0.621,0.293,2.369,72,
West Lake Bonney,1/12/99,,,,,0,,,,,0,1.001,0.551,0.293,2.497,72,
West Lake Bonney,1/13/99,,,,,0,,,,,0,1.231,0.579,0.301,2.172,72,
West Lake Bonney,1/14/99,,,,,0,,,,,0,1.304,0.638,0.319,2.247,72,
West Lake Bonney,1/15/99,,,,,0,,,,,0,1.444,0.8,0.421,2.717,72,
West Lake Bonney,1/16/99,,,,,0,,,,,0,1.483,0.741,0.6,2.819,72,
West Lake Bonney,1/17/99,,,,,0,,,,,0,1.407,0.659,0.583,2.529,72,
West Lake Bonney,1/18/99,,,,,0,,,,,0,1.452,0.779,0.395,2.818,72,
West Lake Bonney,1/19/99,,,,,0,,,,,0,1.831,1.011,0.622,3.905,72,
West Lake Bonney,1/20/99,,,,,0,,,,,0,1.206,0.664,0.391,3.061,72,
West Lake Bonney,1/21/99,,,,,0,,,,,0,1.744,0.906,0.417,2.907,72,
West Lake Bonney,1/22/99,,,,,0,,,,,0,1.571,0.819,0.51,3.537,72,
West Lake Bonney,1/23/99,,,,,0,,,,,0,1.414,0.804,0.511,3.076,72,
West Lake Bonney,1/24/99,,,,,0,,,,,0,1.404,0.836,0.34,2.726,72,
West Lake Bonney,1/25/99,,,,,0,,,,,0,0.97,0.432,0.374,1.533,72,
West Lake Bonney,1/26/99,,,,,0,,,,,0,1.183,0.609,0.464,2.546,72,
West Lake Bonney,1/27/99,,,,,0,,,,,0,1.358,0.765,0.34,2.474,72,
West Lake Bonney,1/28/99,,,,,0,,,,,0,1.243,0.695,0.464,2.746,72,
West Lake Bonney,1/29/99,,,,,0,,,,,0,1.419,0.707,0.379,2.66,72,
West Lake Bonney,1/30/99,,,,,0,,,,,0,1.311,0.635,0.532,3.452,72,
West Lake Bonney,1/31/99,,,,,0,,,,,0,1.388,0.765,0.404,3.043,72,
West Lake Bonney,2/1/99,,,,,0,,,,,0,1.365,0.775,0.379,2.944,72,
West Lake Bonney,2/2/99,,,,,0,,,,,0,1.415,0.826,0.403,3.446,72,
West Lake Bonney,2/3/99,,,,,0,,,,,0,1.513,0.754,0.489,2.552,72,
West Lake Bonney,2/4/99,,,,,0,,,,,0,1.478,0.901,0.34,2.552,72,
West Lake Bonney,2/5/99,,,,,0,,,,,0,1.118,0.696,0.336,2.419,72,
West Lake Bonney,2/6/99,,,,,0,,,,,0,1.435,0.893,0.276,2.678,72,
West Lake Bonney,2/7/99,,,,,0,,,,,0,1.307,0.801,0.331,2.669,72,
West Lake Bonney,2/8/99,,,,,0,,,,,0,1.365,0.904,0.221,2.558,72,
West Lake Bonney,2/9/99,,,,,0,,,,,0,1.389,0.936,0.28,2.787,72,
West Lake Bonney,2/10/99,,,,,0,,,,,0,1.181,0.955,0.17,2.591,72,
West Lake Bonney,2/11/99,,,,,0,,,,,0,1.091,0.88,0.17,2.698,72,
West Lake Bonney,2/12/99,,,,,0,,,,,0,1.197,0.958,0.004,2.608,72,
West Lake Bonney,2/13/99,,,,,0,,,,,0,1.144,0.866,0.152,2.548,72,
West Lake Bonney,2/14/99,,,,,0,,,,,0,1.094,0.855,0.139,2.459,72,
West Lake Bonney,2/15/99,,,,,0,,,,,0,1.047,0.895,0.016,2.527,72,
West Lake Bonney,2/16/99,,,,,0,,,,,0,0.974,0.859,0.016,2.378,72,
West Lake Bonney,2/17/99,,,,,0,,,,,0,0.829,0.721,0,2.272,72,
West Lake Bonney,2/18/99,,,,,0,,,,,0,0.809,0.748,0,2.459,72,
West Lake Bonney,2/19/99,,,,,0,,,,,0,0.763,0.762,0,2.157,72,
West Lake Bonney,2/20/99,,,,,0,,,,,0,0.544,0.475,0,1.482,72,
West Lake Bonney,2/21/99,,,,,0,,,,,0,0.68,0.712,0,2.106,72,
West Lake Bonney,2/22/99,,,,,0,,,,,0,0.643,0.654,0,2.039,72,
West Lake Bonney,2/23/99,,,,,0,,,,,0,0.394,0.4,0,1.436,72,
West Lake Bonney,2/24/99,,,,,0,,,,,0,0.387,0.394,0,1.228,72,
West Lake Bonney,2/25/99,,,,,0,,,,,0,0.3,0.356,0,1.214,72,
West Lake Bonney,2/26/99,,,,,0,,,,,0,0.286,0.286,0,0.68,72,
West Lake Bonney,2/27/99,,,,,0,,,,,0,0.23,0.249,0,0.688,72,
West Lake Bonney,2/28/99,,,,,0,,,,,0,0.324,0.391,0,1.151,72,
West Lake Bonney,3/1/99,,,,,0,,,,,0,0.137,0.211,0,0.693,72,
West Lake Bonney,3/2/99,,,,,0,,,,,0,0.173,0.206,0,0.68,72,
West Lake Bonney,3/3/99,,,,,0,,,,,0,0.143,0.187,0,0.68,72,
West Lake Bonney,3/4/99,,,,,0,,,,,0,0.145,0.183,0,0.663,72,
West Lake Bonney,3/5/99,,,,,0,,,,,0,0.132,0.173,0,0.509,72,
West Lake Bonney,3/6/99,,,,,0,,,,,0,0.09,0.159,0,0.662,72,
West Lake Bonney,3/7/99,,,,,0,,,,,0,0.097,0.151,0,0.527,72,
West Lake Bonney,3/8/99,,,,,0,,,,,0,0.076,0.108,0,0.48,72,
West Lake Bonney,3/9/99,,,,,0,,,,,0,0.037,0.09,0,0.369,72,
West Lake Bonney,3/10/99,,,,,0,,,,,0,0.042,0.061,0,0.199,72,
West Lake Bonney,3/11/99,,,,,0,,,,,0,0.017,0.055,0,0.319,72,
West Lake Bonney,3/12/99,,,,,0,,,,,0,0.14,0.19,0,0.509,72,
West Lake Bonney,3/13/99,,,,,0,,,,,0,0.005,0.023,0,0.157,72,
West Lake Bonney,3/14/99,,,,,0,,,,,0,0.062,0.108,0,0.369,72,
West Lake Bonney,3/15/99,,,,,0,,,,,0,0.057,0.116,0,0.344,72,
West Lake Bonney,3/16/99,,,,,0,,,,,0,0,0.002,0,0.016,72,
West Lake Bonney,3/17/99,,,,,0,,,,,0,0.019,0.042,0,0.161,72,
West Lake Bonney,3/18/99,,,,,0,,,,,0,0.001,0.002,0,0.012,72,
West Lake Bonney,3/19/99,,,,,0,,,,,0,0.048,0.067,0,0.165,72,
West Lake Bonney,3/20/99,,,,,0,,,,,0,0.047,0.067,0,0.17,72,
West Lake Bonney,3/21/99,,,,,0,,,,,0,0.042,0.067,0,0.199,72,
West Lake Bonney,3/22/99,,,,,0,,,,,0,0,0.002,0,0.021,72,
West Lake Bonney,3/23/99,,,,,0,,,,,0,0.015,0.031,0,0.106,72,
West Lake Bonney,3/24/99,,,,,0,,,,,0,0.003,0.008,0,0.038,72,
West Lake Bonney,3/25/99,,,,,0,,,,,0,0.033,0.077,0,0.323,72,
West Lake Bonney,3/26/99,,,,,0,,,,,0,0.017,0.044,0,0.157,72,
West Lake Bonney,3/27/99,,,,,0,,,,,0,0,0,0,0,72,
West Lake Bonney,3/28/99,,,,,0,,,,,0,0,0,0,0,72,
West Lake Bonney,3/29/99,,,,,0,,,,,0,0,0,0,0,72,
West Lake Bonney,3/30/99,,,,,0,,,,,0,0,0.002,0,0.012,72,
West Lake Bonney,3/31/99,,,,,0,,,,,0,0.001,0.002,0,0.012,72,
West Lake Bonney,4/1/99,,,,,0,,,,,0,0,0,0,0,72,
West Lake Bonney,4/2/99,,,,,0,,,,,0,0,0,0,0,72,
West Lake Bonney,4/3/99,,,,,0,,,,,0,0,0,0,0,72,
West Lake Bonney,4/4/99,,,,,0,,,,,0,0,0,0,0,72,
West Lake Bonney,4/5/99,,,,,0,,,,,0,0,0,0,0,72,
West Lake Bonney,4/6/99,,,,,0,,,,,0,0,0,0,0,72,
West Lake Bonney,4/7/99,,,,,0,,,,,0,0,0,0,0,72,
West Lake Bonney,4/8/99,,,,,0,,,,,0,0,0,0,0,72,
West Lake Bonney,4/9/99,,,,,0,,,,,0,0,0,0,0,72,
West Lake Bonney,4/10/99,,,,,0,,,,,0,0.002,0.012,0,0.063,72,
West Lake Bonney,4/11/99,,,,,0,,,,,0,0,0,0,0,72,
West Lake Bonney,4/12/99,,,,,0,,,,,0,0,0,0,0,72,
West Lake Bonney,4/13/99,,,,,0,,,,,0,0,0,0,0,72,
West Lake Bonney,4/14/99,,,,,0,,,,,0,0.001,0.003,0,0.021,72,
West Lake Bonney,4/15/99,,,,,0,,,,,0,0,0,0,0,72,
West Lake Bonney,4/16/99,,,,,0,,,,,0,0,0,0,0,72,
West Lake Bonney,4/17/99,,,,,0,,,,,0,0,0,0,0,72,
West Lake Bonney,4/18/99,,,,,0,,,,,0,0.001,0.003,0,0.021,72,
West Lake Bonney,4/19/99,,,,,0,,,,,0,0,0,0,0,72,
West Lake Bonney,4/20/99,,,,,0,,,,,0,0,0.002,0,0.017,72,
West Lake Bonney,4/21/99,,,,,0,,,,,0,0,0.002,0,0.021,72,
West Lake Bonney,4/22/99,,,,,0,,,,,0,0,0,0,0,72,
West Lake Bonney,4/23/99,,,,,0,,,,,0,0,0,0,0,72,
West Lake Bonney,4/24/99,,,,,0,,,,,0,0,0,0,0,72,
West Lake Bonney,4/25/99,,,,,0,,,,,0,0.004,0.013,0,0.072,72,
West Lake Bonney,4/26/99,,,,,0,,,,,0,0,0,0,0,72,
West Lake Bonney,4/27/99,,,,,0,,,,,0,0.001,0.006,0,0.046,72,
West Lake Bonney,4/28/99,,,,,0,,,,,0,0,0.002,0,0.016,72,
West Lake Bonney,4/29/99,,,,,0,,,,,0,0,0,0,0,72,
West Lake Bonney,4/30/99,,,,,0,,,,,0,0,0,0,0,72,
West Lake Bonney,5/1/99,,,,,0,,,,,0,0,0,0,0,72,
West Lake Bonney,5/2/99,,,,,0,,,,,0,0,0.002,0,0.021,72,
West Lake Bonney,5/3/99,,,,,0,,,,,0,0,0,0,0,72,
West Lake Bonney,5/4/99,,,,,0,,,,,0,0,0,0,0,72,
West Lake Bonney,5/5/99,,,,,0,,,,,0,0,0,0,0,72,
West Lake Bonney,5/6/99,,,,,0,,,,,0,0,0,0,0,72,
West Lake Bonney,5/7/99,,,,,0,,,,,0,0,0,0,0,72,
West Lake Bonney,5/8/99,,,,,0,,,,,0,0,0,0,0,72,
West Lake Bonney,5/9/99,,,,,0,,,,,0,0,0,0,0.004,72,
West Lake Bonney,5/10/99,,,,,0,,,,,0,0,0.004,0,0.034,72,
West Lake Bonney,5/11/99,,,,,0,,,,,0,0.001,0.009,0,0.068,72,
West Lake Bonney,5/12/99,,,,,0,,,,,0,0,0,0,0,72,
West Lake Bonney,5/13/99,,,,,0,,,,,0,0,0,0,0,72,
West Lake Bonney,5/14/99,,,,,0,,,,,0,0,0,0,0,72,
West Lake Bonney,5/15/99,,,,,0,,,,,0,0,0,0,0,72,
West Lake Bonney,5/16/99,,,,,0,,,,,0,0,0,0,0,72,
West Lake Bonney,5/17/99,,,,,0,,,,,0,0,0,0,0,72,
West Lake Bonney,5/18/99,,,,,0,,,,,0,0,0,0,0,72,
West Lake Bonney,5/19/99,,,,,0,,,,,0,0,0,0,0,72,
West Lake Bonney,5/20/99,,,,,0,,,,,0,0,0,0,0,72,
West Lake Bonney,5/21/99,,,,,0,,,,,0,0.009,0.023,0,0.115,72,
West Lake Bonney,5/22/99,,,,,0,,,,,0,0.006,0.031,0,0.238,72,
West Lake Bonney,5/23/99,,,,,0,,,,,0,0,0,0,0,72,
West Lake Bonney,5/24/99,,,,,0,,,,,0,0,0,0,0,72,
West Lake Bonney,5/25/99,,,,,0,,,,,0,0,0,0,0,72,
West Lake Bonney,5/26/99,,,,,0,,,,,0,0.001,0.004,0,0.034,72,
West Lake Bonney,5/27/99,,,,,0,,,,,0,0.005,0.044,0,0.373,72,
West Lake Bonney,5/28/99,,,,,0,,,,,0,0,0,0,0,72,
West Lake Bonney,5/29/99,,,,,0,,,,,0,0,0,0,0,72,
West Lake Bonney,5/30/99,,,,,0,,,,,0,0.001,0.006,0,0.05,72,
West Lake Bonney,5/31/99,,,,,0,,,,,0,0,0,0,0,72,
West Lake Bonney,6/1/99,,,,,0,,,,,0,0,0,0,0,72,
West Lake Bonney,6/2/99,,,,,0,,,,,0,0,0,0,0,72,
West Lake Bonney,6/3/99,,,,,0,,,,,0,0,0,0,0,72,
West Lake Bonney,6/4/99,,,,,0,,,,,0,0,0,0,0,72,
West Lake Bonney,6/5/99,,,,,0,,,,,0,0,0,0,0,72,
West Lake Bonney,6/6/99,,,,,0,,,,,0,0,0,0,0,72,
West Lake Bonney,6/7/99,,,,,0,,,,,0,0,0,0,0,72,
West Lake Bonney,6/8/99,,,,,0,,,,,0,0,0,0,0,72,
West Lake Bonney,6/9/99,,,,,0,,,,,0,0,0,0,0,72,
West Lake Bonney,6/10/99,,,,,0,,,,,0,0,0,0,0,72,
West Lake Bonney,6/11/99,,,,,0,,,,,0,0,0,0,0,72,
West Lake Bonney,6/12/99,,,,,0,,,,,0,0,0.001,0,0.008,72,
West Lake Bonney,6/13/99,,,,,0,,,,,0,0,0,0,0,72,
West Lake Bonney,6/14/99,,,,,0,,,,,0,0,0,0,0,72,
West Lake Bonney,6/15/99,,,,,0,,,,,0,0,0,0,0,72,
West Lake Bonney,6/16/99,,,,,0,,,,,0,0,0,0,0,72,
West Lake Bonney,6/17/99,,,,,0,,,,,0,0,0,0,0.004,72,
West Lake Bonney,6/18/99,,,,,0,,,,,0,0,0,0,0,72,
West Lake Bonney,6/19/99,,,,,0,,,,,0,0,0,0,0,72,
West Lake Bonney,6/20/99,,,,,0,,,,,0,0,0,0,0,72,
West Lake Bonney,6/21/99,,,,,0,,,,,0,0,0,0,0,72,
West Lake Bonney,6/22/99,,,,,0,,,,,0,0,0,0,0,72,
West Lake Bonney,6/23/99,,,,,0,,,,,0,0,0,0,0,72,
West Lake Bonney,6/24/99,,,,,0,,,,,0,0,0,0,0,72,
West Lake Bonney,6/25/99,,,,,0,,,,,0,0,0,0,0,72,
West Lake Bonney,6/26/99,,,,,0,,,,,0,0,0,0,0,72,
West Lake Bonney,6/27/99,,,,,0,,,,,0,0,0,0,0,72,
West Lake Bonney,6/28/99,,,,,0,,,,,0,0,0,0,0,72,
West Lake Bonney,6/29/99,,,,,0,,,,,0,0,0.001,0,0.008,72,
West Lake Bonney,6/30/99,,,,,0,,,,,0,0,0,0,0,72,
West Lake Bonney,7/1/99,,,,,0,,,,,0,0,0,0,0,72,
West Lake Bonney,7/2/99,,,,,0,,,,,0,0,0,0,0,72,
West Lake Bonney,7/3/99,,,,,0,,,,,0,0.002,0.01,0,0.076,72,
West Lake Bonney,7/4/99,,,,,0,,,,,0,0,0,0,0,72,
West Lake Bonney,7/5/99,,,,,0,,,,,0,0,0,0,0,72,
West Lake Bonney,7/6/99,,,,,0,,,,,0,0,0,0,0,72,
West Lake Bonney,7/7/99,,,,,0,,,,,0,0.002,0.011,0,0.063,72,
West Lake Bonney,7/8/99,,,,,0,,,,,0,0.003,0.01,0,0.055,72,
West Lake Bonney,7/9/99,,,,,0,,,,,0,0,0,0,0,72,
West Lake Bonney,7/10/99,,,,,0,,,,,0,0,0,0,0,72,
West Lake Bonney,7/11/99,,,,,0,,,,,0,0,0,0,0,72,
West Lake Bonney,7/12/99,,,,,0,,,,,0,0,0,0,0,72,
West Lake Bonney,7/13/99,,,,,0,,,,,0,0,0,0,0,72,